This demonstration page uses our WeatherBlox Daily Observations layout. Learn more.

Left ArrowRight Arrow

Hourly Observations for May 25, 2015

Temp ( °F °C ) Dew Point ( °F °C ) Humidity (%) Winds ( mph kmh ) Pressure ( in mb ) Visibility ( mi km ) Precip ( " mm )
12:16 am 00:16 Clear 72 22 46 8 41 41 S 9 15 30.03 1017 10 16.0934 N/A
12:36 am 00:36 Clear 73 23 45 7 36 36 S 12 19 30.03 1017 10 16.0934 N/A
12:56 am 00:56 Clear 72 22 46 8 41 41 S 10 17 30.03 1017 10 16.0934 N/A
1:16 am 01:16 Clear 72 22 46 8 41 41 S 10 17 30.03 1017 10 16.0934 N/A
1:37 am 01:37 Partly Cloudy 72 22 46 8 41 41 SSE 9 15 30.03 1017 10 16.0934 N/A
1:56 am 01:56 Clear 72 22 46 8 41 41 S 10 17 30.03 1017 10 16.0934 N/A
2:16 am 02:16 Clear 72 22 46 8 41 41 SSE 7 11 30.03 1017 10 16.0934 N/A
2:36 am 02:36 Clear 72 22 46 8 41 41 S 9 15 30 1016 10 16.0934 N/A
2:56 am 02:56 Clear 72 22 48 9 44 44 S 8 13 30 1016 10 16.0934 N/A
3:16 am 03:16 Clear 72 22 48 9 44 44 S 10 17 30 1016 10 16.0934 N/A
3:36 am 03:36 Clear 72 22 48 9 44 44 S 12 19 30 1016 10 16.0934 N/A
3:56 am 03:56 Clear 72 22 48 9 44 44 S 12 19 30 1016 10 16.0934 N/A
4:17 am 04:17 Clear 72 22 48 9 44 44 S 10 17 30 1016 10 16.0934 N/A
4:36 am 04:36 Clear 70 21 50 10 50 50 S 9 15 30 1016 10 16.0934 N/A
4:56 am 04:56 Clear 72 22 50 10 47 47 S 12 19 30 1016 10 16.0934 N/A
5:16 am 05:16 Clear 72 22 50 10 47 47 S 12 19 30 1016 10 16.0934 N/A
5:36 am 05:36 Partly Cloudy 72 22 52 11 50 50 S 16 26 30 1016 10 16.0934 N/A
5:57 am 05:57 Mostly Cloudy 70 21 55 13 60 60 SSW 15 24 30.06 1018 10 16.0934 N/A
6:16 am 06:16 Cloudy 68 20 59 15 73 73 SSW 16 26 30.06 1018 10 16.0934 N/A
6:36 am 06:36 Mostly Cloudy 68 20 68 20 100 100 S 15 24 30.03 1017 10 16.0934 N/A
6:57 am 06:57 Partly Cloudy 68 20 N/A N/A SSW 12 19 30.03 1017 10 16.0934 N/A
7:16 am 07:16 Partly Cloudy 68 20 N/A N/A SSW 14 22 30.06 1018 10 16.0934 N/A
7:37 am 07:37 Partly Cloudy 68 20 N/A N/A S 13 20 30.06 1018 10 16.0934 N/A
7:56 am 07:56 Mostly Cloudy 68 20 N/A N/A S 15 24 30.03 1017 10 16.0934 N/A
8:16 am 08:16 Cloudy 68 20 N/A N/A SSW 13 20 30.06 1018 10 16.0934 N/A
8:36 am 08:36 Cloudy 68 20 68 20 100 100 S 15 24 30.06 1018 10 16.0934 N/A
8:56 am 08:56 Mostly Cloudy 70 21 68 20 94 94 SSW 13 20 30.06 1018 10 16.0934 N/A
9:17 am 09:17 Partly Cloudy 72 22 63 17 73 73 SSW 18 30 30.03 1017 10 16.0934 N/A
9:36 am 09:36 Mostly Cloudy 70 21 63 17 78 78 SSW 18 30 30.06 1018 10 16.0934 N/A
9:56 am 09:56 Mostly Cloudy 73 23 61 16 65 65 SSW 17 28 30.03 1017 10 16.0934 N/A
10:16 am 10:16 Cloudy 72 22 61 16 69 69 S 17 28 30.03 1017 10 16.0934 N/A
10:36 am 10:36 Cloudy 72 22 61 16 69 69 SSW 18 30 30.03 1017 10 16.0934 N/A
10:56 am 10:56 Cloudy 72 22 61 16 69 69 SSW 16 26 30.03 1017 10 16.0934 N/A
11:16 am 11:16 Cloudy 72 22 59 15 65 65 SSW 17 28 30.03 1017 10 16.0934 N/A
11:36 am 11:36 Cloudy 72 22 61 16 69 69 SSW 16 26 30.03 1017 10 16.0934 N/A
11:57 am 11:57 Mostly Cloudy 72 22 61 16 69 69 SSW 16 26 30.06 1018 10 16.0934 N/A
12:16 pm 12:16 Mostly Cloudy 72 22 59 15 65 65 SSW 12 19 30.06 1018 10 16.0934 N/A
12:36 pm 12:36 Mostly Cloudy 72 22 61 16 69 69 SSW 14 22 30.06 1018 10 16.0934 N/A
12:57 pm 12:57 Cloudy 70 21 63 17 78 78 SSW 14 22 30.09 1019 7 11.26538 N/A
1:16 pm 13:16 Mostly Cloudy 70 21 68 20 94 94 SSW 10 17 30.09 1019 10 16.0934 N/A
1:36 pm 13:36 Mostly Cloudy 73 23 63 17 69 69 SSW 10 17 30.06 1018 10 16.0934 N/A
1:56 pm 13:56 Partly Cloudy 77 25 57 14 51 51 SSW 14 22 30.06 1018 10 16.0934 N/A
2:16 pm 14:16 Mostly Cloudy 75 24 57 14 54 54 SSW 14 22 30.06 1018 10 16.0934 N/A
2:36 pm 14:36 Mostly Cloudy 72 22 66 19 83 83 SW 14 22 30.06 1018 7 11.26538 N/A
2:56 pm 14:56 Partly Cloudy 75 24 59 15 57 57 SW 23 37 30.06 1018 10 16.0934 N/A
3:16 pm 15:16 Partly Cloudy 77 25 55 13 47 47 SW 16 26 30.03 1017 10 16.0934 N/A
3:36 pm 15:36 Sunny 77 25 54 12 44 44 SW 18 30 30.03 1017 10 16.0934 N/A
3:56 pm 15:56 Partly Cloudy 79 26 54 12 42 42 SSW 18 30 30.03 1017 10 16.0934 N/A
4:16 pm 16:16 Partly Cloudy 79 26 54 12 42 42 SSW 17 28 30.03 1017 10 16.0934 N/A
4:36 pm 16:36 Partly Cloudy 79 26 52 11 39 39 SW 17 28 30.03 1017 10 16.0934 N/A
4:56 pm 16:56 Sunny 79 26 54 12 42 42 SW 18 30 30.03 1017 10 16.0934 N/A
5:16 pm 17:16 Partly Cloudy 79 26 52 11 39 39 SW 16 26 30.03 1017 10 16.0934 N/A
5:36 pm 17:36 Mostly Cloudy 79 26 52 11 39 39 SW 12 19 30.03 1017 10 16.0934 N/A
5:56 pm 17:56 Partly Cloudy 79 26 52 11 39 39 SW 15 24 30.03 1017 10 16.0934 N/A
6:17 pm 18:17 Partly Cloudy 79 26 52 11 39 39 SSW 17 28 30.03 1017 10 16.0934 N/A
6:36 pm 18:36 Partly Cloudy 77 25 54 12 44 44 SSW 15 24 30.03 1017 10 16.0934 N/A
6:56 pm 18:56 Mostly Cloudy 77 25 54 12 44 44 SSW 14 22 30 1016 10 16.0934 N/A
7:16 pm 19:16 Partly Cloudy 75 24 55 13 50 50 SSW 14 22 30.03 1017 10 16.0934 N/A
7:36 pm 19:36 Mostly Cloudy 75 24 55 13 50 50 S 14 22 30.03 1017 10 16.0934 N/A
7:56 pm 19:56 Mostly Cloudy 75 24 55 13 50 50 SSW 9 15 30.03 1017 10 16.0934 N/A
8:16 pm 20:16 Partly Cloudy 75 24 55 13 50 50 S 16 26 30 1016 10 16.0934 N/A
8:36 pm 20:36 Partly Cloudy 73 23 55 13 53 53 S 15 24 30.03 1017 10 16.0934 N/A
8:56 pm 20:56 Partly Cloudy 72 22 57 14 61 61 SSW 10 17 30.03 1017 10 16.0934 N/A
9:16 pm 21:16 Clear 72 22 57 14 61 61 SSW 12 19 30.03 1017 10 16.0934 N/A
9:37 pm 21:37 Clear 70 21 57 14 64 64 S 7 11 30.06 1018 10 16.0934 N/A
9:56 pm 21:56 Clear 70 21 57 14 64 64 S 6 9 30.06 1018 10 16.0934 N/A
10:16 pm 22:16 Clear 70 21 59 15 69 69 S 8 13 30.06 1018 10 16.0934 N/A
10:36 pm 22:36 Clear 70 21 59 15 69 69 S 7 11 30.06 1018 10 16.0934 N/A
10:56 pm 22:56 Clear 68 20 59 15 73 73 S 6 9 30.09 1019 10 16.0934 N/A
11:16 pm 23:16 Clear 68 20 61 16 78 78 S 8 13 30.09 1019 10 16.0934 N/A
11:36 pm 23:36 Clear 68 20 63 17 83 83 SSW 9 15 30.09 1019 10 16.0934 N/A
11:56 pm 23:56 Clear 68 20 66 19 94 94 SSW 12 19 30.09 1019 10 16.0934 N/A

Powered by AerisWeather